Presure
204 201 203 173 155 158 176 204 215 211 210 219 202 215 214 216 228 221 224 230 237 232 231 243 228 237 231 240 242 242 244 258 263 261 258 259 277 337
168 171 194 202 198 190 176 157 189 205 200 211 210 198 199 197 207 218 212 202 214 225 211 225 229 231 219 227 233 232 239 238 239 244 247 263 271 247
206 212 189 194 206 184 197 162 182 163 174 207 200 208 216 192 208 199 212 211 213 212 224 225 227 213 218 217 218 212 229 229 230 229 233 243 249 252
207 206 205 207 206 202 202 200 207 203 198 170 172 164 171 219 177 205 175 214 203 214 215 213 199 189 223 220 222 212 211 216 218 228 235 236 236 239
207 204 197 202 195 195 195 209 184 216 194 205 200 144 211 189 163 195 201 213 193 221 208 211 216 220 225 205 210 222 236 218 229 217 217 225 235 228
200 195 193 196 209 198 191 196 199 225 216 215 218 145 208 181 220 204 218 226 167 194 197 195 201 228 210 227 225 205 228 214 238 211 202 212 212 226
206 231 200 196 200 190 199 202 202 201 204 206 163 214 194 198 202 229 220 221 224 232 193 211 228 227 230 225 185 200 205 233 229 227 226 213 218 221
204 198 201 201 245 259 255 202 203 125 207 240 235 205 209 229 212 195 201 221 226 191 183 222 224 219 222 230 227 228 230 226 235 233 240 228 195 239
253 262 257 253 250 226 225 204 206 232 232 213 247 234 211 240 244 245 247 220 231 240 235 233 228 237 233 226 227 238 192 225 223 236 237 154 218 200
227 245 250 252 248 251 245 260 269 256 234 166 240 261 248 205 254 245 242 263 231 263 242 246 253 251 249 236 244 209 196 248 235 216 231 181 136 135
255 253 258 240 270 248 238 180 266 271 243 260 197 258 268 286 257 259 257 261 262 267 271 267 266 272 265 266 250 243 250 247 261 253 243 248 163 137
243 258 273 258 224 299 276 285 359 287 365 336 312 313 333 324 253 250 257 336 264 258 246 264 270 266 275 280 281 268 271 246 249 257 272 252 264 254
267 255 152 312 306 285 265 177 213 337 339 276 298 297 297 318 314 297 265 274 251 290 250 257 276 272 275 269 284 284 265 259 256 253 254 273 274 267
258 287 246 291 280 344 296 344 357 256 275 327 292 316 291 299 309 303 321 313 324 299 304 300 294 270 268 279 273 264 266 270 279 262 264 217 260 272
251 253 333 328 349 288 320 338 339 344 336 338 312 305 320 315 315 294 300 310 296 313 304 337 300 292 289 288 274 290 291 283 279 285 255 271 286 248
342 329 369 358 349 338 337 328 324 327 322 323 331 334 323 331 315 283 298 319 324 295 305 299 326 349 326 303 281 286 299 288 293 299 281 271 274 274
379 374 369 364 367 362 365 362 356 342 348 352 350 336 335 342 341 327 333 335 332 320 327 288 279 290 350 316 307 323 345 343 327 329 313 302 281 273
390 388 382 372 380 393 407 413 420 416 413 415 414 416 408 365 355 351 335 327 319 321 311 322 333 322 288 312 307 310 346 308 348 347 344 327 303 305
379 383 387 415 412 405 400 396 395 392 391 389 394 399 403 400 404 411 133 452 389 365 355 334 317 319 326 314 335 326 311 302 296 293 294 363 348 353
378 403 399 392 391 389 382 378 379 382 380 376 376 384 410 408 413 432 457 435 435 456 469 409 361 330 326 321 289 291 337 330 329 324 313 304 365 365
388 402 422 429 453 450 444 437 426 413 405 399 394 392 393 391 390 395 395 408 416 418 430 441 490 461 363 344 332 324 325 349 341 331 331 350 358 353
415 415 417 454 443 436 430 429 424 396 412 408 405 406 429 452 468 458 455 384 388 393 398 421 454 451 482 455 358 342 325 325 340 345 313 325 307 329
409 412 486 478 473 457 415 409 406 404 406 420 426 431 430 433 440 445 452 446 445 377 378 383 437 441 466 464 464 472 360 330 314 292 354 359 319 308
Wind_Speed
30 28 27 41 33 32 31 30 28 32 33 33 38 36 41 40 39 44 42 40 38 39 41 35 42 39 41 36 37 37 37 33 33 35 37 39 37 32
40 40 37 36 35 40 47 35 39 39 42 39 42 47 48 50 50 47 51 53 47 45 50 43 42 42 46 43 41 41 40 41 40 40 40 35 34 43
49 46 46 44 43 46 45 42 51 44 49 50 47 47 49 53 53 55 52 54 54 53 50 49 47 50 49 50 48 50 46 45 44 45 45 43 42 41
57 56 55 54 52 52 53 54 55 55 57 54 54 48 53 54 54 56 54 57 61 58 58 58 58 57 52 52 52 55 56 52 52 51 49 48 48 47
66 66 66 64 62 61 59 62 58 64 62 65 65 47 60 63 52 60 60 61 62 62 63 63 62 60 59 59 58 56 56 57 55 55 55 53 53 53
70 72 71 70 70 70 64 68 68 73 74 73 75 47 67 58 67 68 67 68 58 60 67 66 60 67 66 63 62 61 62 60 60 60 59 59 58 58
79 76 79 78 79 70 78 78 75 74 79 76 61 78 66 71 71 77 77 73 72 75 69 69 72 71 70 69 55 68 67 65 64 64 60 64 63 64
85 85 85 86 79 85 75 86 85 50 86 90 91 75 76 89 72 67 66 77 81 73 74 73 71 69 72 74 73 73 72 69 69 68 67 65 63 67
105 106 94 86 84 90 81 93 89 82 89 81 96 97 84 95 95 97 96 87 87 89 86 85 78 85 80 76 75 80 64 74 71 74 72 60 67 65
89 92 96 93 89 95 89 93 98 91 81 70 94 99 90 82 102 93 91 102 86 98 87 91 92 90 88 82 86 73 66 84 81 75 76 65 62 62
111 106 106 96 111 93 95 68 92 95 102 97 63 99 99 97 104 103 102 101 101 99 97 92 96 96 91 91 89 89 88 85 85 85 83 83 66 65
101 112 116 105 97 113 96 99 84 95 85 90 88 89 92 93 102 98 102 95 101 98 88 92 94 93 96 95 94 91 89 85 83 83 85 82 83 81
110 102 62 114 112 104 83 60 76 84 84 90 89 86 86 86 88 91 90 103 89 98 90 91 98 95 94 91 93 94 88 87 86 83 83 86 86 84
102 103 89 101 104 93 98 90 87 79 90 87 89 87 88 89 90 89 87 87 92 92 94 92 94 95 87 92 92 92 88 88 90 85 85 75 82 84
101 101 102 99 92 99 99 91 91 89 89 88 90 89 89 89 90 89 88 88 87 85 90 90 95 97 96 94 91 95 93 91 88 89 80 86 86 79
108 104 94 91 92 95 93 95 95 94 92 91 91 91 92 92 90 90 90 89 87 86 86 89 88 90 90 92 90 92 93 90 92 91 87 85 86 86
94 92 91 89 86 87 85 86 88 92 92 94 96 93 93 93 91 91 89 89 87 86 87 91 90 87 88 86 86 89 92 88 89 89 87 87 87 84
83 80 79 80 79 79 77 77 77 78 79 79 81 83 84 91 91 91 90 89 87 88 88 88 87 86 86 82 82 84 87 84 87 85 85 84 86 84
79 78 77 77 74 72 70 69 68 68 70 70 71 72 73 75 76 77 44 70 88 89 89 90 86 83 80 78 81 80 78 78 77 76 76 82 81 81
77 75 74 72 69 67 65 64 64 63 64 64 64 63 61 61 60 59 59 64 67 65 63 79 85 84 81 80 76 75 77 74 72 73 73 69 69 70
73 68 63 58 52 53 53 54 55 55 56 57 57 57 56 55 55 56 57 57 58 60 59 58 45 57 80 80 77 77 72 70 68 66 65 61 59 59
63 59 55 47 46 46 46 47 47 49 49 49 49 49 45 42 38 39 39 53 54 54 55 51 44 47 40 51 76 74 69 64 64 65 60 60 60 59
53 51 39 35 34 36 39 40 41 42 43 40 37 36 36 35 33 32 30 32 31 50 51 51 37 39 33 37 40 40 70 64 61 60 60 61 59 59
Wind_Direction
289 283 281 289 274 275 275 271 268 263 261 261 258 260 261 262 264 260 263 262 261 262 263 267 261 265 264 271 273 274 275 280 274 272 267 265 266 267
292 291 277 280 274 274 283 267 274 266 266 259 260 261 261 262 266 267 263 261 261 259 260 261 260 263 261 267 268 267 271 270 270 272 272 271 269 261
290 288 281 279 280 275 273 266 273 270 275 263 257 256 258 267 262 268 268 267 268 266 268 265 262 258 260 262 263 264 268 267 267 267 268 269 268 267
288 287 286 284 280 277 276 275 273 270 267 276 275 273 274 258 274 259 274 263 269 268 268 266 260 262 260 262 263 263 264 264 264 266 267 266 266 266
289 288 290 286 286 282 279 277 272 273 271 270 268 261 265 265 269 261 263 258 268 262 266 268 268 267 264 258 259 262 268 263 263 263 265 265 264 264
281 282 283 281 278 279 279 280 279 273 271 270 269 261 270 265 266 263 266 266 272 266 266 268 269 263 269 263 262 261 262 266 264 263 266 265 265 263
274 282 278 281 278 281 279 277 276 276 277 276 269 273 271 269 268 264 264 268 267 265 264 266 264 264 265 266 262 265 266 263 264 265 263 262 264 261
278 279 276 277 284 286 284 278 279 270 279 267 265 278 279 269 276 261 263 271 267 257 265 268 265 264 266 265 265 266 266 265 264 262 262 263 267 261
290 290 289 288 285 269 277 276 279 270 280 281 262 267 267 266 264 264 263 267 269 265 267 267 264 263 263 264 264 263 265 265 263 265 264 250 260 259
278 289 291 286 282 280 275 282 279 273 272 273 268 265 260 268 264 262 263 262 263 264 262 265 264 263 262 262 261 264 265 263 264 264 265 255 253 257
287 288 287 276 291 276 272 276 276 276 269 269 266 265 268 263 264 265 266 266 265 264 262 262 264 264 263 262 260 262 261 261 261 261 264 264 254 255
281 289 289 288 275 291 287 287 274 279 269 267 270 268 264 261 268 267 266 260 264 266 266 265 262 263 263 262 261 261 259 260 261 262 260 262 261 262
288 285 273 288 288 289 278 277 281 270 269 272 268 267 264 263 261 264 265 261 262 258 263 265 262 262 262 262 261 260 260 260 260 261 262 260 259 259
288 288 283 287 288 283 284 280 275 270 273 267 267 264 265 262 262 261 260 259 260 258 257 258 258 261 262 261 260 262 261 260 259 260 260 259 258 258
283 281 286 284 280 282 280 276 275 273 270 269 264 264 263 262 261 260 260 259 256 257 257 256 255 256 258 258 259 258 258 259 258 257 256 259 255 259
288 286 284 281 278 276 274 274 274 272 270 269 268 266 265 264 261 261 261 261 261 257 256 255 257 255 254 254 260 258 258 258 258 256 256 256 257 256
285 284 283 281 279 276 275 272 271 271 271 270 269 267 267 265 263 263 262 262 261 260 258 256 258 256 255 254 254 255 257 256 256 257 256 256 256 257
286 285 283 281 281 280 278 275 274 272 271 270 269 268 266 262 262 261 261 260 259 259 258 257 256 256 255 255 255 254 256 255 256 256 256 256 257 258
288 288 287 285 283 281 279 276 274 272 270 269 268 268 269 267 265 264 245 264 257 256 255 255 256 257 255 254 253 254 255 254 255 256 257 258 257 258
290 288 287 286 284 281 278 276 275 273 272 270 270 269 269 268 267 266 265 262 260 261 260 255 252 253 253 253 252 255 253 254 255 255 255 255 258 259
289 288 286 284 280 278 276 275 275 275 275 275 274 272 271 268 265 263 261 261 259 259 258 257 255 251 249 250 251 252 252 253 252 251 252 253 253 254
287 287 286 282 278 276 275 275 274 273 272 272 271 271 271 271 269 265 262 258 257 256 256 255 253 252 247 247 247 248 249 248 249 249 248 249 248 249
285 286 288 285 283 282 275 273 272 272 273 274 274 272 271 269 267 263 258 253 251 253 253 253 249 248 241 242 244 246 245 244 243 244 249 250 245 245